"2022-01-11 00:01:00",2759710,2.579334,161.6772,5.659424,0.2507978,2.99,0,2.790667,166.8664,8.058287,0.180867,3.13,0,-999,0,-0.5,98.8,-0.458,-0.433,0.2,0,0,1.097,13.58,0.2,103.1348,3.157,3.158,3.157,100,0,0,0,235.4,123.7,123.7
"2022-01-11 00:02:00",2759711,2.721333,161.9987,5.390012,0.3928165,3.37,0,2.600667,157.8052,6.153163,0.2970178,2.97,0,-999,0,-0.5,98.8,-0.45,-0.432,0.2,0,0,1.096,13.58,0.2,103.1384,3.157,3.157,3.157,100,0,0,0,235.4,123.7,123.7
"2022-01-11 00:03:00",2759712,3.418667,159.0027,3.793052,0.3671669,4.28,0,2.316,153.4046,4.712393,0.4854936,3.3,0,-999,0,-0.513,98.4,-0.471,-0.442,0.2,0,0,1.096,13.58,0.2,103.1497,3.157,3.157,3.157,100,0,0,0,235.4,123.7,123.7
"2022-01-11 00:04:00",2759713,3.680667,165.1339,4.063445,0.2620551,4.14,0,2.610667,160.5895,9.125991,0.3405186,3.18,0,-999,0,-0.567,97.6,-0.488,-0.458,0.2,0,0,1.096,13.59,0.2,103.146,3.157,3.157,3.157,100,0,0,0,235.4,123.7,123.7
"2022-01-11 00:05:00",2759714,3.312667,159.402,5.581796,0.1652258,3.64,0,2.592666,160.46,4.494508,0.2860878,3.1,0,-999,0,-0.6,97.6,-0.494,-0.494,0.2,0,0,1.096,13.58,0.2,103.1324,3.157,3.157,3.157,100,0,0,0,235.4,123.7,123.7
"2022-01-11 00:06:00",2759715,3.144,161.865,3.421774,0.2441803,3.64,0,2.736,156.6505,7.960416,0.4369866,3.54,0,-999,0,-0.587,97.7,-0.484,-0.466,0.2,0,0,1.096,13.58,0.2,103.135,3.157,3.157,3.156,100,0,0,0,235.4,123.7,123.7
"2022-01-11 00:07:00",2759716,3.274667,157.2045,5.955537,0.1995951,3.73,0,2.776666,158.6048,4.880089,0.4124991,3.32,0,-999,0,-0.56,98.1,-0.475,-0.451,0.2,0,0,1.096,13.58,0.2,103.1476,3.156,3.157,3.156,100,0,0,0,235.4,123.7,123.7
"2022-01-11 00:08:00",2759717,3.522666,151.666,3.663311,0.2407064,3.92,0,2.798667,148.3329,6.647228,0.3825679,3.56,0,-999,0,-0.52,98,-0.471,-0.446,0.2,0,0,1.096,13.59,0.2,103.1374,3.157,3.157,3.157,100,0,0,0,235.4,123.7,123.7
"2022-01-11 00:09:00",2759718,3.981333,153.6666,4.451205,0.402225,4.73,0,2.998,154.2653,5.064118,0.2616155,3.54,0,-999,0,-0.527,97.5,-0.475,-0.447,0.2,0,0,1.096,13.58,0.2,103.1423,3.157,3.157,3.156,100,0,0,0,235.4,123.7,123.7
"2022-01-11 00:10:00",2759719,4.415714,159.8571,0,496.6797,1000,2.133,3.130666,154.8658,3.894756,0.4275896,4.09,0,-999,0,-0.5,97.5,-0.471,-0.447,0.2,0,0,1.096,13.59,0.2,103.1512,3.157,3.157,3.156,100,0,0,0,235.4,123.7,123.7
"2022-01-11 00:11:00",2759720,"NAN","NAN","NAN",0,1000,4,2.971334,155.6673,5.08084,0.3610885,3.64,0,-999,0,-0.507,97.5,-0.475,-0.447,0.2,0,0,1.1,13.57,0.2,103.1451,3.156,3.157,3.155,100,0,0,0,235.4,123.7,123.7
"2022-01-11 00:12:00",2759721,"NAN","NAN","NAN",0,1000,4,2.634667,156.9914,5.372591,0.4188534,3.28,0,-999,0,-0.507,97.8,-0.475,-0.449,0.2,0,0,1.109,13.58,0.2,103.1479,3.155,3.157,3.155,100,0,0,0,235.4,123.7,123.7
"2022-01-11 00:13:00",2759722,3.445,151.5,0,338.7602,1000,3.467,2.354,161.7421,6.897058,0.2946139,2.82,0,-999,0,-0.567,98.2,-0.476,-0.453,0.2,0,0,1.117,13.58,0.2,103.1526,3.155,3.157,3.155,100,0,0,0,235.4,123.7,123.7
"2022-01-11 00:14:00",2759723,2.6775,160.3615,5.950648,497.5469,1000,1.867,1.994,159.3242,5.611865,0.3748208,2.81,0,-999,0,-0.54,98.5,-0.471,-0.448,0.2,0,0,1.118,13.58,0.2,103.1521,3.155,3.155,3.155,100,0,0,0,235.4,123.7,123.7
"2022-01-11 00:15:00",2759724,2.361333,160.1374,8.016227,0.2747815,2.79,0,2.488667,161.8007,3.467393,0.2438816,2.87,0,-999,0,-0.5,99.4,-0.441,-0.434,0.2,0,0,1.118,13.58,0.2,103.1461,3.155,3.155,3.155,100,0,0,0,235.4,123.7,123.7
"2022-01-11 00:16:00",2759725,2.918,154.7341,3.659238,0.2793851,3.48,0,2.069333,160.6721,6.3595,0.4192926,2.8,0,-999,0,-0.5,99.7,-0.413,-0.401,0.2,0,0,1.118,13.57,0.2,103.1504,3.155,3.155,3.154,100,0,0,0,235.4,123.7,123.7
"2022-01-11 00:17:00",2759726,3.105334,161.402,5.602568,0.2767157,3.54,0,2.205333,155.2604,5.729709,0.2759678,2.67,0,-999,0,-0.5,99.1,-0.408,-0.397,0.2,0,0,1.118,13.59,0.2,103.1679,3.155,3.155,3.155,100,0,0,0,235.4,123.7,123.7
"2022-01-11 00:18:00",2759727,2.69,167.8659,3.498626,0.2541128,3.22,0,2.306667,165.0005,5.954641,0.4877932,2.95,0,-999,0,-0.5,98.6,-0.415,-0.414,0.2,0,0,1.118,13.58,0.2,103.1573,3.155,3.155,3.155,100,0,0,0,235.4,123.7,123.7
"2022-01-11 00:19:00",2759728,2.562,161.1932,6.805682,0.3388254,3.13,0,2.112667,168.0697,5.417986,0.23348,2.46,0,-999,0,-0.5,98.9,-0.381,-0.365,0.2,0,0,1.118,13.59,0.2,103.1593,3.156,3.157,3.155,100,0,0,0,235.4,123.7,123.7
"2022-01-11 00:20:00",2759729,2.692,162.6644,3.734226,0.1970855,3.07,0,2.359334,163.9322,5.129992,0.4699002,2.87,0,-999,0,-0.5,99.4,-0.377,-0.365,0.2,0,0,1.118,13.58,0.2,103.1587,3.155,3.157,3.155,100,0,0,0,235.4,123.7,123.7
"2022-01-11 00:21:00",2759730,2.8,156.7969,4.859225,0.3261493,3.26,0,2.885334,156.6004,5.64223,0.336172,3.45,0,-999,0,-0.427,99.4,-0.357,-0.356,0.2,0,0,1.118,13.58,0.2,103.1715,3.155,3.155,3.155,100,0,0,0,235.4,123.7,123.7
"2022-01-11 00:22:00",2759731,2.981334,161.8666,4.240072,0.1816541,3.31,0,2.420666,160.8773,6.079955,0.2819567,2.79,0,-999,0,-0.44,99,-0.353,-0.355,0.2,0,0,1.118,13.59,0.2,103.1603,3.155,3.155,3.155,100,0,0,0,235.4,123.7,123.7
"2022-01-11 00:23:00",2759732,2.935333,156.4014,4.28572,0.2284693,3.34,0,2.385333,158.4739,6.027184,0.3450578,2.93,0,-999,0,-0.413,98.3,-0.362,-0.356,0.2,0,0,1.121,13.57,0.2,103.1509,3.155,3.155,3.154,100,0,0,0,235.4,123.7,123.7
"2022-01-11 00:24:00",2759733,2.847333,161.0667,4.311315,0.2523877,3.25,0,2.031333,162.6642,4.465466,0.3308548,2.62,0,-999,0,-0.4,98.3,-0.338,-0.328,0.2,0,0,1.133,13.57,0.2,103.1521,3.154,3.155,3.154,100,0,0,0,235.4,123.7,123.7
"2022-01-11 00:25:00",2759734,3.234667,161.7328,3.042935,0.1645951,3.41,0,2.682667,162.6644,4.344728,0.189507,2.96,0,-999,0,-0.4,98.1,-0.333,-0.313,0.2,0,0,1.138,13.58,0.2,103.1462,3.154,3.155,3.153,100,0,0,0,235.4,123.7,123.7
"2022-01-11 00:26:00",2759735,3.212667,164.1324,2.801118,0.1705859,3.42,0,2.612,158.6674,3.805245,0.1867333,3.05,0,-999,0,-0.4,97.4,-0.322,-0.301,0.2,0,0,1.138,13.58,0.2,103.1603,3.154,3.154,3.154,100,0,0,0,235.4,123.7,123.7
"2022-01-11 00:27:00",2759736,3.040667,168.9311,3.695235,0.2149563,3.42,0,2.598,166.932,4.448202,0.4852656,3.27,0,-999,0,-0.4,97.5,-0.326,-0.299,0.2,0,0,1.138,13.58,0.2,103.1504,3.154,3.154,3.153,100,0,0,0,235.4,123.7,123.7
"2022-01-11 00:28:00",2759737,3.650666,171.2632,3.835996,0.4188789,4.36,0,2.830667,166.7337,3.472735,0.3418473,3.38,0,-999,0,-0.387,98.4,-0.284,-0.279,0.2,0,0,1.138,13.59,0.2,103.1404,3.153,3.154,3.153,100,0,0,0,235.4,123.7,123.7
"2022-01-11 00:29:00",2759738,3.526667,180.5333,3.774662,0.371639,4.33,0,3.056667,185.414,9.642143,0.4150448,3.59,0,-999,0,-0.347,98.9,-0.292,-0.279,0.2,0,0,1.138,13.58,0.2,103.1439,3.153,3.154,3.153,100,0,0,0,235.4,123.7,123.7
"2022-01-11 00:30:00",2759739,3.653333,179.8001,3.65473,0.3684321,4.22,0,2.850667,185.533,4.176426,0.3680845,3.52,0,-999,0,-0.333,99.2,-0.292,-0.281,0.2,0,0,1.138,13.58,0.2,103.1461,3.153,3.153,3.152,100,0,0,0,235.4,123.7,123.7
"2022-01-11 00:31:00",2759740,3.629333,175.13,4.191614,0.2873898,4.16,0,2.799333,175.3044,7.007363,0.4523489,3.57,0,-999,0,-0.3,98.8,-0.278,-0.258,0.2,0,0,1.138,13.58,0.2,103.1425,3.152,3.153,3.152,100,0,0,0,235.4,123.7,123.7
"2022-01-11 00:32:00",2759741,3.673333,175.6673,3.975508,0.308127,4.28,0,2.719333,174.6,4.378,0.4707507,3.5,0,-999,0,-0.3,98.6,-0.275,-0.261,0.2,0,0,1.152,13.57,0.2,103.1487,3.152,3.153,3.151,100,0,0,0,235.4,123.7,123.7
"2022-01-11 00:33:00",2759742,3.823333,174.9342,2.8856,0.2471076,4.35,0,2.985333,174.3336,3.589584,0.3400366,3.56,0,-999,0,-0.3,98.8,-0.253,-0.249,0.2,0,0,1.159,13.58,0.2,103.1556,3.153,3.153,3.152,100,0,0,0,235.4,123.7,123.7
"2022-01-11 00:34:00",2759743,3.804,179.2619,5.417387,0.253056,4.23,0,2.974,178.0565,5.633875,0.3911487,3.69,0,-999,0,-0.3,98.7,-0.248,-0.24,0.2,0,0,1.159,13.57,0.2,103.1676,3.153,3.153,3.152,100,0,0,0,235.4,123.7,123.7
"2022-01-11 00:35:00",2759744,3.930667,177.0664,2.293638,0.2390388,4.27,0,2.744,173.6664,5.950234,0.4413131,3.35,0,-999,0,-0.3,98.6,-0.261,-0.244,0.2,0,0,1.159,13.59,0.2,103.1555,3.152,3.153,3.152,100,0,0,0,235.4,123.7,123.7
"2022-01-11 00:36:00",2759745,3.864667,174.2688,4.652851,0.3779923,4.36,0,3.153333,171.2653,3.922733,0.307629,3.55,0,-999,0,-0.327,98,-0.302,-0.29,0.2,0,0,1.159,13.58,0.2,103.1501,3.152,3.153,3.152,100,0,0,0,235.4,123.7,123.7
"2022-01-11 00:37:00",2759746,3.594666,174.3933,5.324726,0.2720262,3.96,0,2.986667,173.542,6.005295,0.3867241,3.86,0,-999,0,-0.4,97.8,-0.33,-0.305,0.2,0,0,1.163,13.57,0.2,103.1517,3.151,3.152,3.151,100,0,0,0,235.4,123.7,123.7
"2022-01-11 00:38:00",2759747,3.504667,175.2016,4.776103,0.2354815,3.88,0,2.870667,176.7968,4.967631,0.3570895,3.57,0,-999,0,-0.4,98,-0.331,-0.304,0.2,0,0,1.172,13.58,0.2,103.1732,3.152,3.153,3.152,100,0,0,0,235.4,123.7,123.7
"2022-01-11 00:39:00",2759748,3.272,168.5335,3.648711,0.2759517,3.76,0,2.81,173.5348,4.601332,0.3078961,3.49,0,-999,0,-0.38,98.7,-0.29,-0.282,0.2,0,0,1.181,13.59,0.2,103.1678,3.152,3.153,3.152,100,0,0,0,235.4,123.7,123.7
"2022-01-11 00:40:00",2759749,3.465333,166.5351,3.843791,0.2296916,3.73,0,2.662,166.1329,4.499054,0.5693177,3.58,0,-999,0,-0.34,98.9,-0.289,-0.265,0.2,0,0,1.181,13.57,0.2,103.1568,3.152,3.152,3.152,100,0,0,0,235.4,123.7,123.7
"2022-01-11 00:41:00",2759750,3.900667,163.0007,3.11955,0.2708373,4.27,0,2.527333,164.0709,5.14147,0.3755259,3.63,0,-999,0,-0.3,98.7,-0.26,-0.254,0.2,0,0,1.181,13.58,0.2,103.1608,3.151,3.153,3.151,100,0,0,0,235.4,123.7,123.7
"2022-01-11 00:42:00",2759751,3.733333,165.1331,3.138195,0.08622964,3.85,0,2.403333,167.2631,5.29398,0.3188869,2.99,0,-999,0,-0.3,98.4,-0.252,-0.246,0.2,0,0,1.181,13.58,0.2,103.1485,3.151,3.153,3.151,100,0,0,0,235.4,123.7,123.7
"2022-01-11 00:43:00",2759752,3.478667,168.0652,3.212945,0.2816349,3.89,0,2.560666,169.2619,6.348186,0.271452,2.91,0,-999,0,-0.3,98.1,-0.256,-0.247,0.2,0,0,1.181,13.57,0.2,103.1614,3.151,3.152,3.151,100,0,0,0,235.4,123.7,123.7
"2022-01-11 00:44:00",2759753,3.574,166.6646,4.494836,0.2813729,4,0,2.738667,169.9404,5.379808,0.3669308,3.28,0,-999,0,-0.3,98,-0.257,-0.247,0.2,0,0,1.181,13.58,0.2,103.1611,3.151,3.152,3.151,100,0,0,0,235.4,123.7,123.7
"2022-01-11 00:45:00",2759754,3.846667,167.7354,5.31986,0.310691,4.2,0,2.66,164.0612,7.190613,0.4414068,3.62,0,-999,0,-0.3,98.2,-0.258,-0.24,0.2,0,0,1.183,13.58,0.2,103.1698,3.151,3.151,3.151,100,0,0,0,235.4,123.7,123.7
"2022-01-11 00:46:00",2759755,3.390667,178.2656,3.254277,0.3100209,3.97,0,2.863333,176.7978,6.581052,0.2698559,3.29,0,-999,0,-0.3,98.5,-0.255,-0.229,0.2,0,0,1.195,13.58,0.2,103.1635,3.15,3.151,3.15,100,0,0,0,235.4,123.7,123.7
"2022-01-11 00:47:00",2759756,3.317333,175.7335,3.042709,0.1744502,3.59,0,2.666667,171.9989,4.599366,0.4222742,3.44,0,-999,0,-0.3,98.8,-0.252,-0.227,0.2,0,0,1.202,13.58,0.2,103.1686,3.15,3.151,3.15,100,0,0,0,235.4,123.7,123.7
"2022-01-11 00:48:00",2759757,3.03,182.3417,6.220165,0.2606914,3.55,0,2.597333,187.9319,8.099178,0.333216,3.27,0,-999,0,-0.3,99,-0.255,-0.223,0.2,0,0,1.202,13.58,0.2,103.1788,3.15,3.15,3.15,100,0,0,0,235.4,123.7,123.7
"2022-01-11 00:49:00",2759758,3.053334,187.5995,5.107825,0.2279084,3.45,0,2.773334,188.5346,3.322804,0.2932728,3.48,0,-999,0,-0.3,99.3,-0.22,-0.203,0.2,0,0,1.202,13.58,0.2,103.1805,3.15,3.15,3.15,100,0,0,0,235.4,123.7,123.7
"2022-01-11 00:50:00",2759759,3.148667,183.863,3.718398,0.3054803,3.81,0,2.745333,178.8114,8.849599,0.4078377,3.23,0,-999,0,-0.287,100.1,-0.215,-0.198,0.2,0,0,1.202,13.58,0.2,103.1806,3.151,3.151,3.15,100,0,0,0,235.4,123.7,123.7
"2022-01-11 00:51:00",2759760,3.292667,183.0036,5.084229,0.2552767,3.6,0,2.799333,185.5846,8.485649,0.2457768,3.22,0,-999,0,-0.3,99.5,-0.214,-0.198,0.2,0,0,1.202,13.58,0.2,103.1723,3.151,3.151,3.151,100,0,0,0,235.4,123.7,123.7
"2022-01-11 00:52:00",2759761,3.772,185.4666,4.438117,0.2801714,4.43,0,3.035333,180.8004,4.165217,0.2741013,3.49,0,-999,0,-0.273,99,-0.183,-0.176,0.2,0,0,1.218,13.59,0.2,103.175,3.151,3.151,3.151,100,0,0,0,235.4,123.7,123.7
"2022-01-11 00:53:00",2759762,3.829334,177.5994,3.071984,0.286344,4.2,0,3.108667,176.1995,3.166219,0.3374386,3.58,0,-999,0,-0.26,98.2,-0.183,-0.167,0.2,0,0,1.224,13.58,0.2,103.1841,3.151,3.151,3.151,100,0,0,0,235.4,123.7,123.7
"2022-01-11 00:54:00",2759763,3.356667,177.1359,3.34252,0.1759419,3.62,0,2.582,174.9977,5.057721,0.3715409,3.49,0,-999,0,-0.287,97.7,-0.201,-0.182,0.2,0,0,1.224,13.58,0.2,103.1794,3.151,3.151,3.151,100,0,0,0,235.4,123.7,123.7
"2022-01-11 00:55:00",2759764,3.52,169.3996,3.401506,0.461707,4.06,0,2.478,166.5271,6.971248,0.482814,3.57,0,-999,0,-0.24,98.4,-0.183,-0.171,0.2,0,0,1.224,13.59,0.2,103.1791,3.151,3.151,3.151,100,0,0,0,235.4,123.7,123.7
"2022-01-11 00:56:00",2759765,3.296667,165.3323,3.090787,0.2632531,3.8,0,2.613333,164.4688,5.388862,0.3835216,3.37,0,-999,0,-0.28,98.1,-0.183,-0.168,0.2,0,0,1.224,13.58,0.2,103.182,3.15,3.151,3.15,100,0,0,0,235.4,123.7,123.7
"2022-01-11 00:57:00",2759766,3.538,168.9303,4.264027,0.1993724,4,0,2.914,165.8657,4.729138,0.3017239,3.47,0,-999,0,-0.213,97.8,-0.18,-0.163,0.2,0,0,1.228,13.58,0.2,103.1805,3.151,3.151,3.15,100,0,0,0,235.4,123.7,123.7
"2022-01-11 00:58:00",2759767,3.746667,165.6655,2.819705,0.4617888,4.34,0,2.6,163.5842,8.219585,0.3355792,3.17,0,-999,0,-0.2,98.3,-0.18,-0.149,0.2,0,0,1.245,13.59,0.2,103.1807,3.151,3.151,3.15,100,0,0,0,235.4,123.7,123.7
"2022-01-11 00:59:00",2759768,3.918667,167.7336,3.731781,0.1848916,4.32,0,2.898,168.3951,6.125952,0.2987798,3.46,0,-999,0,-0.213,97.7,-0.182,-0.157,0.2,0,0,1.245,13.58,0.2,103.1853,3.151,3.151,3.15,100,0,0,0,235.4,123.7,123.7
"2022-01-11 01:00:00",2759769,3.659333,164.9999,1.897245,0.1584705,3.93,0,2.286667,162.3285,5.651042,0.2633797,2.81,0,-999,0,-0.213,97.5,-0.17,-0.146,0.2,0,0,1.245,13.58,0.2,103.1743,3.151,3.151,3.15,100,0,0,0,235.4,123.7,123.7
"2022-01-11 01:01:00",2759770,3.470715,162.2854,2.962132,248.5757,1000,0.267,2.654,157.266,5.383778,0.2570811,3.16,0,-999,0,-0.2,98.3,-0.161,-0.134,0.2,0,0,1.245,13.58,0.2,103.177,3.151,3.151,3.15,100,0,0,0,235.4,123.7,123.7
"2022-01-11 01:02:00",2759771,3.444286,163.286,3.451599,497.1644,1000,2.133,2.276666,163.1349,5.592165,0.304908,2.85,0,-999,0,-0.2,98.6,-0.147,-0.132,0.2,0,0,1.251,13.58,0.2,103.1814,3.151,3.151,3.15,100,0,0,0,235.4,123.7,123.7
"2022-01-11 01:03:00",2759772,3.486666,167.6006,4.498268,0.3303668,3.87,0,2.635334,160.6038,5.346557,0.554315,3.38,0,-999,0,-0.2,98.4,-0.128,-0.127,0.2,0,0,1.266,13.58,0.2,103.1886,3.151,3.151,3.15,100,0,0,0,235.4,123.7,123.7
"2022-01-11 01:04:00",2759773,3.472667,165.4045,4.798349,0.2314437,3.85,0,3.066667,164.3979,5.173435,0.4021886,3.78,0,-999,0,-0.2,98.6,-0.11,-0.094,0.2,0,0,1.267,13.58,0.2,103.1878,3.151,3.151,3.15,100,0,0,0,235.4,123.7,123.7
"2022-01-11 01:05:00",2759774,3.822,162.1998,2.314976,0.2990028,4.27,0,2.94,161.2044,4.760617,0.4058078,3.8,0,-999,0,-0.2,98.2,-0.099,-0.072,0.2,0,0,1.267,13.57,0.2,103.1814,3.151,3.151,3.151,100,0,0,0,235.4,123.7,123.7
"2022-01-11 01:06:00",2759775,4.044666,159.667,2.958589,0.2170059,4.41,0,3.259333,157.1307,4.627789,0.4107792,3.96,0,-999,0,-0.2,97.7,-0.097,-0.063,0.2,0,0,1.267,13.58,0.2,103.1725,3.152,3.152,3.151,100,0,0,0,235.4,123.7,123.7
"2022-01-11 01:07:00",2759776,3.829334,157.666,2.356533,0.2905274,4.31,0,3.328667,160.7345,3.508677,0.3407417,3.96,0,-999,0,-0.2,97.6,-0.092,-0.064,0.2,0,0,1.267,13.57,0.2,103.1839,3.151,3.151,3.151,100,0,0,0,235.4,123.7,123.7
"2022-01-11 01:08:00",2759777,3.980667,160.0659,2.047946,0.2437886,4.33,0,2.503333,163.2605,5.844691,0.3806778,3.24,0,-999,0,-0.187,97.7,-0.09,-0.057,0.2,0,0,1.269,13.58,0.2,103.1833,3.151,3.152,3.151,100,0,0,0,235.4,123.7,123.7
"2022-01-11 01:09:00",2759778,3.746667,160.5331,2.061101,0.3866034,4.31,0,2.983333,155.199,5.268011,0.3182591,3.67,0,-999,0,-0.16,98.2,-0.058,-0.054,0.2,0,0,1.288,13.58,0.2,103.1835,3.151,3.152,3.151,100,0,0,0,235.4,123.7,123.7
"2022-01-11 01:10:00",2759779,3.66,156.4669,3.073516,0.322511,4.08,0,3.192,157.0012,3.24456,0.359837,3.61,0,-999,0,-0.12,98.2,-0.055,-0.052,0.2,0,0,1.288,13.57,0.2,103.1897,3.152,3.152,3.151,100,0,0,0,235.4,123.7,123.7
"2022-01-11 01:11:00",2759780,3.9,153.0019,3.948947,0.2173783,4.19,0,2.719333,151.6602,5.969663,0.4872708,3.64,0,-999,0,-0.107,98,-0.068,-0.057,0.2,0,0,1.288,13.57,0.2,103.1938,3.151,3.151,3.151,100,0,0,0,235.4,123.7,123.7
"2022-01-11 01:12:00",2759781,3.534667,156.2665,5.505969,0.3544548,3.91,0,2.955333,150.5323,3.200837,0.3007073,3.44,0,-999,0,-0.16,98,-0.072,-0.057,0.2,0,0,1.298,13.57,0.2,103.1813,3.151,3.151,3.151,100,0,0,0,235.4,123.7,123.7
"2022-01-11 01:13:00",2759782,3.725333,153.465,3.684864,0.26658,4.14,0,2.691334,152.1356,5.108673,0.318933,3.43,0,-999,0,-0.1,98.5,-0.058,-0.056,0.2,0,0,1.307,13.58,0.2,103.1955,3.152,3.152,3.151,100,0,0,0,235.4,123.7,123.7
"2022-01-11 01:14:00",2759783,3.284,154.07,4.765262,0.3590691,4.41,0,2.878,153.2652,4.738008,0.3899436,3.36,0,-999,0,-0.1,98.7,-0.061,-0.056,0.2,0,0,1.308,13.58,0.2,103.2003,3.152,3.153,3.152,100,0,0,0,235.4,123.7,123.7
"2022-01-11 01:15:00",2759784,3.756667,154.1223,5.555469,0.4049143,4.38,0,2.800667,152.4636,6.874275,0.3478403,3.37,0,-999,0,-0.1,98.7,-0.051,-0.043,0.2,0,0,1.308,13.58,0.2,103.1935,3.152,3.153,3.152,100,0,0,0,235.4,123.7,123.7
"2022-01-11 01:16:00",2759785,3.293334,150.6488,6.301525,0.2709161,3.68,0,2.774,150.3327,4.37497,0.2901677,3.24,0,-999,0,-0.127,98.5,-0.06,-0.056,0.2,0,0,1.308,13.57,0.2,103.1766,3.152,3.153,3.151,100,0,0,0,235.4,123.7,123.7
"2022-01-11 01:17:00",2759786,3.300667,152.6669,4.436634,0.2763685,3.76,0,2.628,155.1595,8.242305,0.3969921,3.34,0,-999,0,-0.113,98.6,-0.054,-0.047,0.2,0,0,1.309,13.59,0.2,103.182,3.153,3.153,3.152,100,0,0,0,235.4,123.7,123.7
"2022-01-11 01:18:00",2759787,3.446,152.4002,2.627769,0.2516293,4.1,0,2.787333,156.9317,4.653442,0.3971979,3.37,0,-999,0,-0.113,98.6,-0.055,-0.048,0.2,0,0,1.327,13.58,0.2,103.1908,3.153,3.153,3.152,100,0,0,0,235.4,123.7,123.7
"2022-01-11 01:19:00",2759788,4.006,155.6018,2.93801,0.3444958,4.45,0,3.255333,149.6004,2.497476,0.3976911,3.84,0,-999,0,-0.1,98.2,-0.052,-0.052,0.2,0,0,1.33,13.57,0.2,103.1732,3.153,3.153,3.152,100,0,0,0,235.4,123.7,123.7
"2022-01-11 01:20:00",2759789,4.021333,154.601,3.629055,0.2906743,4.5,0,3.305333,152.7329,3.192617,0.4288259,4,0,-999,0,-0.127,97.7,-0.054,-0.052,0.2,0,0,1.33,13.57,0.2,103.1885,3.153,3.153,3.153,100,0,0,0,235.4,123.7,123.7
"2022-01-11 01:21:00",2759790,3.725333,161.8673,3.84328,0.2326619,4.17,0,3.490667,156.3989,4.11025,0.3229131,4.03,0,-999,0,-0.1,98,-0.049,-0.045,0.2,0,0,1.332,13.57,0.2,103.1835,3.153,3.153,3.153,100,0,0,0,235.4,123.7,123.7
"2022-01-11 01:22:00",2759791,3.697143,158.5719,3.374235,248.5194,1000,0.267,2.858,160.1856,8.055402,0.5272596,3.69,0,-999,0,-0.1,98.2,-0.045,-0.02,0.2,0,0,1.349,13.57,0.2,103.1817,3.153,3.153,3.153,100,0,0,0,235.4,123.7,123.7
"2022-01-11 01:23:00",2759792,2.935333,145.3803,36.08768,0.9400912,4.58,0,3.208667,156.467,2.216945,0.3488431,3.82,0,-999,0,-0.1,98.2,-0.04,-0.01,0.2,0,0,1.351,13.58,0.2,103.179,3.153,3.153,3.153,100,0,0,0,235.4,123.7,123.7
"2022-01-11 01:24:00",2759793,3.794545,158.2838,31.41244,440.5345,1000,0.867,2.920666,159.1934,7.057517,0.4973861,3.94,0,-999,0,-0.1,98.9,-0.029,-0.001,0.2,0,0,1.351,13.58,0.2,103.1869,3.154,3.154,3.153,100,0,0,0,235.4,123.7,123.7
"2022-01-11 01:25:00",2759794,3.737999,159.4016,3.825516,0.2894408,4.21,0,2.828,163.0694,5.306944,0.5104795,3.52,0,-999,0,-0.1,99.1,-0.029,0.001,0.2,0,0,1.351,13.58,0.2,103.1939,3.154,3.154,3.154,100,0,0,0,235.4,123.7,123.7
"2022-01-11 01:26:00",2759795,3.571334,162.7326,3.548711,0.3268612,4.34,0,2.867333,162.6674,4.405585,0.2841001,3.43,0,-999,0,-0.1,98.7,-0.029,0.001,0.2,0,0,1.351,13.58,0.2,103.1848,3.154,3.154,3.154,100,0,0,0,235.4,123.7,123.7
"2022-01-11 01:27:00",2759796,3.548,158.4007,4.028962,0.213579,4.07,0,3.232,157.2025,4.084823,0.4008025,3.98,0,-999,0,-0.1,98.7,-0.029,0.001,0.2,0,0,1.351,13.57,0.2,103.1784,3.155,3.155,3.154,100,0,0,0,235.4,123.7,123.7
"2022-01-11 01:28:00",2759797,3.868,155.1948,4.633966,0.3424266,4.43,0,3.4,157.1348,4.160168,0.3491895,4.05,0,-999,0,-0.1,98.5,-0.029,0.001,0.2,0,0,1.357,13.58,0.2,103.2001,3.154,3.155,3.154,100,0,0,0,235.4,123.7,123.7
"2022-01-11 01:29:00",2759798,4.172667,150.9955,4.528361,0.5262632,4.84,0,3.146,151.7966,5.827729,0.3193911,3.71,0,-999,0,-0.1,98.2,-0.029,0.001,0.2,0,0,1.372,13.57,0.2,103.1819,3.154,3.154,3.154,100,0,0,0,235.4,123.7,123.7
"2022-01-11 01:30:00",2759799,3.894666,158.7266,5.20617,0.4628443,4.57,0,3.186667,156.801,4.165453,0.491944,4.03,0,-999,0,-0.1,97.9,-0.029,0.001,0.2,0,0,1.373,13.57,0.2,103.1793,3.154,3.154,3.154,100,0,0,0,235.4,123.7,123.7
"2022-01-11 01:31:00",2759800,4.732,158.2002,6.153484,0.9457709,6.61,0,3.122,156.2673,5.892158,0.5941066,4.09,0,-999,0,-0.1,98.2,-0.029,0.001,0.2,0,0,1.373,13.58,0.2,103.1828,3.154,3.155,3.154,100,0,0,0,235.4,123.7,123.7
"2022-01-11 01:32:00",2759801,5.132667,160.4192,8.919098,0.4819885,5.95,0,3.466,151.3479,9.216319,0.5726755,4.27,0,-999,0,-0.1,98.1,-0.029,0.001,0.2,0,0,1.373,13.57,0.2,103.1885,3.154,3.155,3.154,100,0,0,0,235.4,123.7,123.7
"2022-01-11 01:33:00",2759802,4.468,163.8661,2.940278,0.3905414,5.27,0,3.405334,161.4661,3.878416,0.4027053,4.21,0,-999,0,-0.1,97.9,-0.028,0.001,0.2,0,0,1.375,13.57,0.2,103.1808,3.154,3.155,3.154,100,0,0,0,235.4,123.7,123.7
"2022-01-11 01:34:00",2759803,4.136154,157.9232,0,338.5253,1000,0.533,3.292,158.0726,5.142083,0.4832694,4.14,0,-999,0,-0.1,98.1,-0.026,0.001,0.2,0,0,1.392,13.58,0.2,103.1738,3.155,3.155,3.154,100,0,0,0,235.4,123.7,123.7
"2022-01-11 01:35:00",2759804,3.948667,168.8658,4.616049,0.4395128,4.55,0,3.25,163.1262,6.201032,0.4988253,4.35,0,-999,0,-0.1,98.2,-0.015,0.008,0.2,0,0,1.394,13.57,0.2,103.1902,3.155,3.155,3.155,100,0,0,0,235.4,123.7,123.7
"2022-01-11 01:36:00",2759805,4.139286,157.4295,4.685297,248.4091,1000,0.267,2.865333,159.8681,5.438344,0.3173823,3.35,0,-999,0,-0.087,98.6,0.009,0.02,0.2,0,0,1.394,13.58,0.2,103.1839,3.155,3.155,3.155,100,0,0,0,235.4,123.7,123.7
"2022-01-11 01:37:00",2759806,4.352667,153.4007,3.440612,0.2415358,4.91,0,3.272666,151.2643,4.492694,0.4807281,4.09,0,-999,0,-0.1,98.8,0.003,0.021,0.2,0,0,1.394,13.58,0.2,103.1723,3.155,3.156,3.155,100,0,0,0,235.4,123.7,123.7
"2022-01-11 01:38:00",2759807,4.492667,150.9987,3.325989,0.2382286,5.01,0,3.281333,149.6666,4.189012,0.6280643,4.49,0,-999,0,-0.1,98.7,-0.028,0.002,0.2,0,0,1.395,13.57,0.2,103.1846,3.156,3.156,3.155,100,0,0,0,235.4,123.7,123.7
"2022-01-11 01:39:00",2759808,4.608666,154.1331,3.138132,0.42106,5.32,0,3.524,148.536,5.423418,0.4535314,4.32,0,-999,0,-0.1,98,-0.029,0.001,0.2,0,0,1.413,13.58,0.2,103.1891,3.157,3.157,3.155,100,0,0,0,235.4,123.7,123.7
"2022-01-11 01:40:00",2759809,4.601334,155.3978,5.108615,0.505989,5.35,0,3.494667,154.1987,5.19108,0.4247958,4.29,0,-999,0,-0.1,97.8,-0.029,0.001,0.208,0.031,0,1.416,13.58,0.325,103.1864,3.157,3.157,3.157,100,0,0,0,235.4,123.7,123.7
"2022-01-11 01:41:00",2759810,4.846666,153.734,2.59373,0.4406309,5.63,0,3.453333,151.3329,4.79634,0.4576849,4.44,0,-999,0,-0.1,98.1,-0.029,0.001,0.2,0,0,1.416,13.58,0.2,103.1832,3.156,3.157,3.156,100,0,0,0,235.4,123.7,123.7
"2022-01-11 01:42:00",2759811,4.978666,163.1992,3.832821,0.2378758,5.31,0,3.915333,160.8021,5.086627,0.364744,4.68,0,-999,0,-0.087,97.9,-0.023,0.002,0.2,0,0,1.416,13.58,0.2,103.1736,3.157,3.157,3.156,100,0,0,0,235.4,123.7,123.7
"2022-01-11 01:43:00",2759812,4.847334,164.7401,5.504501,0.3231813,5.33,0,3.537333,169.3339,2.546961,0.4166929,4.25,0,-999,0,-0.1,98.7,0.001,0.011,0.204,0.016,0,1.427,13.58,0.263,103.1862,3.157,3.157,3.156,100,0,0,0,235.4,123.7,123.7
"2022-01-11 01:44:00",2759813,4.71,154.2701,0,440.1296,1000,1.067,3.048,163.0702,4.875896,0.4412438,3.89,0,-999,0,-0.1,99.1,0.008,0.019,0.2,0,0,1.431,13.57,0.2,103.1888,3.157,3.158,3.157,100,0,0,0,235.4,123.7,123.7
"2022-01-11 01:45:00",2759814,4.347778,156.1092,0,487.7632,1000,1.6,2.778667,156.1995,2.948068,0.4113534,3.7,0,-999,0,-0.1,99,0.009,0.02,0.2,0,0,1.437,13.58,0.2,103.1894,3.158,3.158,3.157,100,0,0,0,235.4,123.7,123.7
"2022-01-11 01:46:00",2759815,"NAN","NAN","NAN",0,1000,4,3.110667,154.5349,5.523814,0.4619735,4.02,0,-999,0,-0.1,98.8,0.005,0.019,0.2,0,0,1.437,13.58,0.2,103.1766,3.159,3.159,3.158,100,0,0,0,235.4,123.7,123.7